Location: R�serve Fauniques des Laurentides
(47.3100°N, 71.1900°W)
Time: 01:18:56
(UTC-04:00)

Cosmos 1674 - Visible Passes

Search period start: 01 November 2014 00:00
Search period end: 10 November 2014 23:00
Orbit: 514 x 540 km, 82.5° (Epoch: 31 October)

Date Brightness Start Highest point End Pass type
(mag) Time Alt. Az. Time Alt. Az. Time Alt. Az.
01 Nov 6.0 03:58:42 11° NE 03:58:42 11° NE 03:59:02 10° NE visible
01 Nov 4.3 05:34:00 22° NNW 05:34:00 22° NNW 05:35:42 10° N visible
02 Nov 5.0 04:23:27 15° N 04:23:27 15° N 04:24:14 10° N visible
03 Nov 5.4 04:12:43 10° N 04:12:43 10° N 04:12:45 10° N visible
